Regional Weather Roundup
Issued by NWS

Home | Current Version | Previous Version | Graphics & Text | Print | Product List | Glossary Off
Versions: 1 2 3 4 5 6 7 8 9 10 11 12 13 14 15 16 17 18 19 20 21 22 23 24 25 26 27 28 29 30 31 32 33 34 35 36 37 38 39 40 41 42 43 44 45 46 47 48 49 50

000
ASUS43 KMPX 300010
RWRMN
WEATHER ROUNDUP FOR MINNESOTA
NATIONAL WEATHER SERVICE TWIN CITIES/CHANHASSEN MN
700 PM CDT FRI AUG 29 2014


NOTE: "FAIR" INDICATES FEW OR NO CLOUDS BELOW 12,000 FEET WITH NO
SIGNIFICANT WEATHER AND/OR OBSTRUCTIONS TO VISIBILITY. N/A MEANS
CURRENT SKY AND/OR WEATHER CONDITIONS ARE NOT AVAILABLE.

MNZ060>063-068>070-300100-
   Twin Cities Metro

CITY           SKY/WX    TMP DP  RH WIND       PRES   REMARKS
TWIN CITIES    CLOUDY    72  69  90 CALM      29.74S
6HR MIN TEMP:  67; 6HR MAX TEMP:  80; 6HR PCP:  0.46;

ST PAUL        LGT RAIN  71  68  90 CALM      29.74S
CRYSTAL        LGT RAIN  72  68  87 CALM      29.73S
BLAINE         CLOUDY    72  72 100 CALM      29.75S
LAKEVILLE      CLOUDY    73  70  88 CALM      29.74S
EDEN PRAIRIE   CLOUDY    72  67  84 NW10      29.74R
6HR MIN TEMP:  72; 6HR MAX TEMP:  81; 6HR PCP:  0.42;

SOUTH ST PAUL  LGT RAIN  73  67  81 CALM      29.73F
LAKE ELMO      RAIN      70  68  94 CALM      29.75S
$$
MNZ001>005-007-008-013>017-022>024-027-028-300100-
   Northwest Minnesota

CITY           SKY/WX    TMP DP  RH WIND       PRES   REMARKS
BEMIDJI        CLOUDY    69  65  84 NW9       29.77S
HALLOCK        PTSUNNY   63  59  88 N12       29.85R
ROSEAU         LGT RAIN  59  54  82 N13G18    29.83R
WARROAD        DRIZZLE   61  57  88 N14       29.83R
THIEF RVR FALL CLOUDY    64  61  88 N16G22    29.80R
CROOKSTON      CLOUDY    66  63  88 N15       29.81R
FOSSTON        PTSUNNY   72  66  83 CALM      29.78F
DETROIT LAKES  PTSUNNY   70  64  83 N5        29.79S
MOORHEAD       MOSUNNY   73  70  88 CALM      29.77S
PARK RAPIDS    CLOUDY    71  65  81 NW7       29.77S
MAHNOMEN       CLOUDY    68  65  91 CALM      29.77F
$$
MNZ006-009>011-018-025>026-300100-
   North Central Minnesota

CITY           SKY/WX    TMP DP  RH WIND       PRES   REMARKS
BAUDETTE       CLOUDY    66  63  90 N9        29.78R
FLAG ISLAND    CLOUDY    63  55  77 N17       29.82R
INTL FALLS     CLOUDY    68  63  84 CALM      29.76R
6HR MIN TEMP:  67; 6HR MAX TEMP:  70;

WASKISH        MOCLDY    68  64  88 CALM      29.76S
BIG FORK       CLOUDY    66  63  88 CALM      29.79R
LONGVILLE      CLOUDY    66  64  94 CALM      29.77S
GRAND RAPIDS   CLOUDY    66  63  88 CALM      29.77S
CRANE LAKE     CLOUDY    63  61  94 CALM      29.78S
ORR            CLOUDY    64  61  88 CALM      29.75R
COOK           CLOUDY    64  61  88 CALM      29.78R
WALKER         MOCLDY    68  65  90 CALM      29.77R
$$
MNZ012-019>021-037-300100-
   Northeast Minnesota

CITY           SKY/WX    TMP DP  RH WIND       PRES   REMARKS
DULUTH         FOG       63  61  93 CALM      29.77R VSB 3/4
6HR MIN TEMP:  62; 6HR MAX TEMP:  65; 6HR PCP:  0.34;

ELY            CLOUDY    63  61  94 CALM      29.78R
HIBBING        CLOUDY    66  63  90 SE3       29.78R
EVELETH        CLOUDY    63  61  94 CALM      29.79R
DULUTH HARBOR  CLOUDY    63  61  94 NE8       29.77R
TWO HARBORS    HAZE      61  55  82 CALM      29.75F VSB 1/2
SILVER BAY     CLOUDY    61  61 100 CALM      29.76S
GRAND MARAIS     N/A     60  59  96 NE3       29.76R
G MARAIS ARPRT CLOUDY    57  55  94 CALM      29.79S
$$
MNZ029>031-032-039>041-046>048-054>057-064-300100-
   West Central Minnesota

CITY           SKY/WX    TMP DP  RH WIND       PRES   REMARKS
FERGUS FALLS   PTSUNNY   70  64  83 CALM      29.77S
WHEATON        PTSUNNY   72  64  78 N3        29.78S
MORRIS         PTSUNNY   72  66  83 N7        29.76S
ALEXANDRIA     CLOUDY    70  66  87 NW9       29.79S
ELBOW LAKE     CLOUDY    69  65  88 N6        29.77S
WADENA         PTSUNNY   70  64  83 NW3       29.77S
GLENWOOD       CLOUDY    72  66  83 NW8       29.78S
APPLETON       CLOUDY    75  66  73 N8        29.75S
BENSON         CLOUDY    73  66  78 NE6       29.76S
ORTONVILLE     CLOUDY    73  66  78 N9        29.77R
MADISON        CLOUDY    75  70  83 CALM      29.76S
WILLMAR        FAIR      72  70  94 CALM      29.77S
$$
MNZ033>034-036-042>043-049>051-058-059-300100-
   Central Minnesota

CITY           SKY/WX    TMP DP  RH WIND       PRES   REMARKS
ST CLOUD       CLOUDY    73  68  84 N5        29.75S
6HR MIN TEMP:  70; 6HR MAX TEMP:  74; 6HR PCP:  0.62;

SAUK CENTRE    FAIR      71  67  86 N5        29.77S
PAYNESVILLE    HVY RAIN  68  67  95 CALM      29.76F
AITKIN         CLOUDY    70  64  83 CALM      29.76R
PINE RIVER     CLOUDY    68  66  94 CALM      29.80S
BRAINERD       CLOUDY    69  65  86 CALM      29.77S
STAPLES        CLOUDY    70  64  83 NW3       29.77S
LONG PRAIRIE   CLOUDY    70  64  83 NW7       29.78S
LITTLE FALLS   CLOUDY    70  64  83 CALM      29.77S
LITCHFIELD     CLOUDY    72  72 100 N3        29.76S
BUFFALO        CLOUDY    71  68  91 CALM      29.76S
MAPLE LAKE     CLOUDY    71  70  97 CALM      29.76S
$$
MNZ037-044-045-052-053-300100-
   East Central Minnesota

CITY           SKY/WX    TMP DP  RH WIND       PRES   REMARKS
PRINCETON      CLOUDY    72  68  88 CALM      29.76S
MORA           RAIN      66  64  94 CALM      29.78R
CAMBRIDGE      DRIZZLE   73  63  68 CALM      29.75R
RUSH CITY      CLOUDY    70  67  92 CALM      29.76R
MOOSE LAKE     CLOUDY    66  64  94 CALM      29.75R
HINCKLEY       CLOUDY    70  68  94 NW3       29.76S
CLOQUET        FOG       64  63  94 CALM      29.77S VSB 1/4
MCGREGOR       CLOUDY    66  64  94 CALM      29.77S
$$
MNZ071>073-080-081-089-090-097-098-300100-
   Southwest Minnesota

CITY           SKY/WX    TMP DP  RH WIND       PRES   REMARKS
MONTEVIDEO     CLOUDY    73  73 100 CALM      29.77R
GRANITE FALLS  CLOUDY    69  68  98 S3        29.78R
CANBY          CLOUDY    74  67  79 CALM      29.78S
MARSHALL       CLOUDY    70  66  88 SW3       29.77S
REDWOOD FALLS  LGT RAIN  67  64  90 SW6       29.76S
OLIVIA         TSTM      66  63  88 SW7       29.77R
PIPESTONE      CLOUDY    70  66  88 CALM      29.79F
WINDOM         RAIN      66  64  94 CALM      29.78F
WORTHINGTON    CLOUDY    70  68  94 CALM      29.81R
JACKSON        CLOUDY    70  66  88 CALM      29.79S
TRACY          LGT RAIN  68  67  96 CALM      29.79S
SLAYTON        RAIN      67  66  97 CALM      29.82R
$$
MNZ065>067-074>077-082>085-091>093-300100-
   South Central Minnesota

CITY           SKY/WX    TMP DP  RH WIND       PRES   REMARKS
MANKATO        CLOUDY    72  64  78 NW8G18    29.76R
NEW ULM        LGT RAIN  68  68 100 W5        29.76S
ST JAMES       LGT RAIN  70  66  88 W7        29.78S
FAIRMONT       CLOUDY    70  64  83 NW6       29.77F
GLENCOE        RAIN      70  66  88 CALM      29.75S
FARIBAULT      CLOUDY    79  68  69 SW3       29.76S
OWATONNA       CLOUDY    73  70  88 CALM      29.76F
WASECA         CLOUDY    72  64  78 SW5       29.78S
ALBERT LEA     CLOUDY    73  70  88 W5        29.77R
$$
MNZ078>079-086>088-094>096-300100-
   Southeast Minnesota

CITY           SKY/WX    TMP DP  RH WIND       PRES   REMARKS
ROCHESTER      CLOUDY    75  68  78 W8        29.78R
6HR MIN TEMP:  71; 6HR MAX TEMP:  82; 6HR PCP:  0.29;

RED WING       CLOUDY    73  70  88 CALM      29.74S
STANTON        CLOUDY    76  69  78 SW5       29.74S
DODGE CENTER   CLOUDY    73  70  88 W6        29.78R
WINONA         TSTM      70  66  88 SW5       29.77R
AUSTIN         CLOUDY    73  68  83 NW7       29.77S
PRESTON        TSTM      69  69 100 CALM      29.80S
$$
ABBREVIATIONS USED IN REMARKS
   TC - TEMPERATURES IN CELSIUS
  WCI - WIND CHILL INDEX
   HX - HEAT INDEX
  VSB - VISIBILITY
$$


USA.gov is the U.S. government's official web portal to all federal, state and local government web resources and services.